Tracking 35275 objects as of 8-Sep-2026
HD Live streaming from Space Station
objects crossing your sky now

STARLINK-33946

Track STARLINK-33946 now!
10-day predictions
STARLINK-33946 is classified as:


NORAD ID: 64034
Int'l Code: 2025-102N
Launch date: May 16, 2025
Source: United States (US)
Launch site: AIR FORCE WESTERN TEST RANGE (AFWTR)
Your satellite tracking list
Your tracking list is empty




NASA's NSSDC Master Catalog

Two Line Element Set (TLE):
1 64034U 25102N   26251.58335648  .00018822  00000-0  65830-3 0  9991
2 64034  70.0026  12.7247 0003084 272.6917  53.4302 15.29542989  5721
Source of the keplerian elements: AFSPC